Location: Condor
(52.3263°N, 114.5541°W)
Time: 21:54:17
(UTC+00:00)

Oscar 19 - Pass Details

Date: 07 December 2023
Orbit: 771 x 789 km, 98.9° (Epoch: 04 March)

Event Time Altitude Azimuth Distance (km) Brightness Sun altitude
Rises 14:13:34 0° 8° (N) 3,274 13.7 -11.4°
Reaches altitude 10° 14:16:23 10° 353° (N) 2,345 12.8 -11.0°
Maximum altitude 14:20:09 21° 306° (NW) 1,706 11.8 -10.4°
Drops below altitude 10° 14:23:55 10° 258° (WSW) 2,343 12.6 -9.9°
Sets 14:26:44 0° 243° (WSW) 3,271 13.5 -9.5°
